Simultaneous Nadir Overpasses (SNOs) Predictions

Prediction of SNOs between GOES-16 and METOP-C Satellite Orbit:

Table of predicted SNOs for the next 14.0 days since TLE Epoch: 3/5/2022
Index Date Time (GOES-16) GOES-16 Lat,Lon METOP-C Lat,Lon Distance(km) Time Diff (sec)
1 03/06/2022 02:40:34 -0.05, -75.19 -0.44, -76.87 192.33 80
2 03/07/2022 02:17:15 -0.04, -75.19 0.71, -71.89 376.52 80
3 03/08/2022 14:38:47 0.04, -75.21 0.33, -76.45 141.20 80
4 03/09/2022 14:15:29 0.04, -75.21 -0.81, -71.46 427.87 80
5 03/11/2022 02:37:09 -0.04, -75.20 -0.21, -76.06 97.45 80
6 03/12/2022 02:13:50 -0.04, -75.20 0.89, -71.06 471.88 80
7 03/13/2022 14:35:23 0.04, -75.23 0.10, -75.63 45.37 80
8 03/16/2022 02:31:04 -0.04, -75.23 -0.01, -75.24 3.15 80
9 03/18/2022 14:29:18 0.04, -75.28 -0.09, -74.81 54.34 80
